Wind_Speed
13 12 12 12 12 12 12 12 12 12 11 11 11 12 12 12 12 11 11 11 12 12 12 12 13 13 13 12 12 13 14 14 14 14 15 16 16 16 16 16 17 17 17
14 13 13 12 13 13 12 12 13 13 13 13 13 13 13 13 13 13 12 12 12 12 13 13 13 14 14 14 14 14 15 15 15 15 15 16 16 17 17 17 17 17 17
14 14 14 14 14 14 13 13 14 15 15 15 14 14 14 14 15 14 14 13 13 14 14 14 14 15 15 15 15 15 15 16 16 16 16 17 17 17 17 17 18 18 18
15 15 15 15 15 15 15 14 15 15 15 15 15 15 15 15 15 16 16 15 15 15 15 15 15 16 16 16 15 15 16 17 17 17 18 18 18 18 18 18 19 19 19
15 16 16 16 16 15 15 15 16 16 15 16 16 17 16 16 16 16 17 17 16 16 16 16 16 17 17 16 16 16 17 17 18 18 18 18 18 18 19 19 20 21 21
16 17 17 17 17 17 16 17 17 17 17 17 18 18 17 17 17 17 17 17 18 17 17 17 17 18 18 18 18 18 18 18 18 19 19 19 19 20 20 21 22 23 23
17 18 18 18 18 19 18 18 18 19 19 19 19 19 18 18 18 19 19 19 20 19 19 19 19 19 19 18 18 18 18 19 19 19 19 20 20 21 22 23 24 24 25
19 19 19 19 19 20 20 19 19 20 20 20 20 20 20 20 20 20 21 20 20 20 19 19 19 19 18 18 19 20 20 20 21 21 22 21 21 22 23 24 24 25 26
19 20 20 20 19 19 18 19 20 20 20 20 20 20 21 20 20 20 20 20 20 20 20 20 19 19 19 19 20 20 21 22 22 22 22 23 23 24 24 25 25 26 27
19 19 20 19 19 20 20 20 20 20 20 20 21 21 21 21 21 21 21 20 20 20 21 21 20 21 21 21 21 21 22 22 23 23 24 25 25 26 27 27 28 28 29
20 20 21 21 21 21 21 21 20 20 20 21 21 21 21 21 21 21 20 20 20 21 21 21 22 22 22 22 23 23 23 24 24 25 26 26 27 28 29 29 29 30 30
22 22 22 22 21 22 22 22 22 21 21 21 21 21 21 21 22 21 21 21 21 22 22 22 23 23 23 23 23 23 23 24 25 26 27 27 27 28 28 29 30 31 31
23 23 23 23 23 22 23 23 23 22 22 22 21 21 21 22 22 22 22 22 22 22 22 23 23 23 24 23 23 24 25 25 26 26 26 27 28 29 29 30 31 32 33
23 23 23 23 23 23 23 23 24 23 23 23 22 22 22 22 22 22 22 22 22 23 22 23 23 24 24 25 26 26 26 26 26 27 28 29 29 30 30 31 32 33 34
23 23 23 24 23 24 24 24 24 24 24 24 23 23 22 22 22 22 23 23 24 24 24 24 24 25 25 26 26 27 28 28 28 29 29 29 30 31 31 32 32 33 35
24 24 23 23 23 23 23 24 24 24 24 25 24 23 23 23 23 23 24 25 25 25 25 25 26 26 27 27 28 28 28 29 29 30 30 30 30 31 32 33 33 34 35
25 24 23 24 24 23 23 23 24 24 24 25 25 25 24 24 24 24 25 25 25 26 26 25 26 27 27 28 28 29 29 29 30 30 30 30 31 32 33 34 35 36 36
26 25 24 24 24 24 24 24 24 24 24 24 24 25 25 25 25 25 26 26 26 27 27 27 27 27 28 28 29 29 29 29 30 31 31 32 33 34 34 35 36 38 38
26 26 25 25 25 25 25 25 25 25 25 25 25 25 26 26 26 26 26 27 27 27 27 27 27 28 28 28 29 29 30 31 31 32 32 33 34 35 36 37 38 39 39
26 26 26 25 25 25 25 26 26 26 26 26 26 27 27 27 27 27 27 27 28 28 28 28 29 30 29 30 30 30 31 32 32 33 33 34 35 36 37 38 39 40 40
25 25 25 25 25 25 26 26 26 26 26 26 26 27 28 27 27 27 28 28 28 28 29 29 30 30 30 30 30 31 32 33 33 34 35 36 36 37 38 39 40 41 41
25 25 25 25 25 25 26 26 27 27 27 27 27 28 28 29 28 29 28 28 29 30 31 30 30 31 31 31 32 33 33 34 35 35 36 37 38 39 40 41 41 41 42
25 25 25 25 25 26 26 26 27 27 28 29 28 29 29 29 29 29 29 30 30 31 31 32 32 32 32 32 33 34 35 35 36 37 38 38 39 40 41 42 42 42 42
27 26 26 26 27 27 27 27 28 28 28 29 29 30 30 30 30 30 31 31 31 32 32 32 33 33 33 33 34 35 35 36 37 38 39 40 40 41 42 43 42 42 43
28 28 28 28 28 28 28 29 29 29 29 29 30 30 31 31 31 32 32 32 32 32 33 33 34 34 34 35 36 37 37 38 38 39 40 41 41 42 43 43 43 43 44
30 30 30 30 30 29 29 30 30 31 31 31 31 31 31 32 32 32 32 32 33 33 34 34 34 35 35 36 37 38 39 39 40 41 42 43 43 44 44 44 43 44 44
Wind_Direction
266 266 263 261 257 257 260 262 262 260 261 265 268 269 271 269 268 268 267 269 271 273 276 278 281 285 286 288 289 291 293 293 294 295 297 300 300 298 298 297 295 293 293
267 267 265 264 259 258 261 262 263 264 265 265 267 271 272 271 270 268 268 269 270 271 274 277 281 284 286 287 288 289 292 293 295 297 299 301 301 300 300 298 297 295 295
268 267 265 264 262 261 262 264 264 264 265 266 269 273 273 270 269 269 269 269 268 270 272 276 280 283 284 285 286 287 290 292 294 295 297 298 299 299 299 298 297 296 296
266 266 265 263 262 263 264 265 264 263 264 266 268 273 275 271 269 268 269 269 269 269 272 275 279 282 285 287 287 288 290 291 293 294 295 296 297 299 299 299 297 296 297
265 265 266 265 264 263 264 264 264 263 264 266 268 271 273 271 271 270 270 269 271 271 271 274 278 282 285 287 288 289 291 293 294 296 296 295 296 298 300 299 298 298 298
265 267 267 266 265 263 263 264 264 265 266 267 269 270 271 271 271 272 270 270 273 274 273 275 277 279 281 284 286 289 292 294 296 297 296 295 294 295 297 298 299 299 298
264 265 266 265 264 265 265 264 265 266 267 268 269 269 268 270 271 272 271 272 274 274 274 275 277 281 281 282 283 287 291 294 297 298 297 296 295 296 296 298 299 298 298
263 264 264 263 263 264 265 265 265 266 267 268 268 268 267 268 271 272 273 273 273 275 275 275 277 278 280 282 283 287 289 292 294 294 295 295 294 294 296 298 298 299 299
264 265 265 264 263 264 266 267 267 267 268 268 266 267 268 269 271 274 274 273 270 272 274 275 277 278 280 281 283 287 290 291 291 292 294 294 295 295 296 298 298 299 300
267 266 265 265 264 266 266 268 269 269 268 267 268 268 270 270 271 274 275 273 271 273 275 276 278 280 281 283 285 287 289 291 290 290 291 293 294 295 296 297 297 298 299
268 267 267 268 266 266 266 267 268 268 268 268 267 268 269 269 270 273 277 274 274 275 276 276 278 279 279 281 284 286 288 290 292 292 292 292 294 295 296 297 298 299 300
267 268 268 268 269 268 267 266 266 267 268 268 268 268 268 269 271 273 275 276 276 278 276 275 277 278 280 281 282 284 288 291 293 295 294 294 294 295 296 298 299 300 301
266 267 267 268 269 268 268 267 265 266 267 267 267 267 268 270 272 272 273 274 277 277 274 275 276 277 280 282 283 285 288 290 292 294 296 296 296 296 296 297 298 300 301
265 266 266 266 267 269 267 267 265 265 267 267 266 266 268 271 273 272 272 273 275 275 274 275 277 278 280 281 283 286 289 291 292 294 295 296 297 297 297 298 300 301 302
264 265 266 267 269 269 269 267 266 266 266 265 265 266 268 270 271 271 272 275 276 276 275 275 277 279 280 282 284 286 288 290 292 294 295 295 296 298 298 298 300 301 303
263 264 265 267 268 268 267 266 266 266 266 264 264 266 267 268 269 272 273 274 276 277 277 277 278 280 282 283 285 286 288 290 292 294 295 296 297 298 298 299 300 302 303
263 265 266 266 266 267 267 266 266 266 266 265 265 266 267 268 269 271 273 275 277 278 278 278 279 281 283 284 285 286 288 291 293 295 296 297 297 298 298 299 301 303 303
264 264 265 267 267 266 266 267 267 267 267 265 265 266 268 269 270 272 275 276 276 277 277 277 279 281 283 285 286 288 289 291 292 294 295 297 298 299 298 299 301 302 303
263 264 265 266 266 266 267 267 267 267 267 267 265 267 269 270 272 274 275 276 276 277 278 278 279 282 284 286 287 288 288 290 292 294 295 297 298 298 299 300 301 302 303
265 265 266 266 267 267 267 267 266 266 267 268 268 268 269 271 272 274 275 275 276 277 278 279 281 281 282 284 286 287 288 289 290 292 294 296 298 298 299 300 301 302 303
267 266 266 265 266 266 266 266 266 266 267 269 269 269 269 271 273 273 274 276 276 277 278 280 280 281 282 284 286 287 288 289 291 293 294 295 296 298 299 300 301 301 302
267 266 266 266 266 266 266 267 268 268 268 269 270 270 270 271 273 274 276 277 278 277 277 278 280 280 281 284 286 288 289 290 291 292 294 295 296 298 300 301 302 302 303
266 265 266 266 267 267 268 269 269 269 270 270 270 271 272 272 272 273 275 277 278 278 278 279 280 281 282 285 287 289 290 291 292 293 295 296 297 299 300 302 303 303 304
265 265 266 267 268 268 268 268 269 270 270 271 271 272 273 273 273 274 275 277 279 280 280 281 282 282 283 286 288 290 291 292 292 294 295 296 297 299 300 302 303 303 303
264 266 267 268 268 268 268 269 270 270 271 272 272 273 273 273 274 274 276 278 279 281 281 282 283 283 283 285 287 289 290 291 292 294 296 297 297 299 300 301 303 303 303
264 265 266 267 268 269 270 270 270 270 272 273 273 273 273 273 274 275 277 278 279 280 281 283 284 284 284 285 287 289 291 292 293 294 295 297 298 299 300 301 302 303 304
Height
5835 5835 5836 5836 5836 5836 5837 5837 5837 5838 5838 5838 5838 5838 5838 5838 5837 5837 5837 5837 5837 5837 5836 5836 5836 5835 5834 5834 5833 5833 5832 5831 5830 5829 5828 5827 5825 5824 5822 5820 5819 5817 5816
5831 5832 5832 5832 5833 5833 5833 5834 5834 5834 5834 5835 5835 5835 5834 5834 5834 5834 5834 5833 5833 5833 5833 5833 5832 5832 5831 5830 5830 5829 5828 5827 5827 5825 5824 5823 5821 5820 5818 5816 5814 5813 5812
5828 5828 5828 5829 5829 5829 5830 5830 5830 5830 5831 5831 5831 5831 5831 5831 5831 5830 5830 5830 5830 5829 5829 5829 5829 5828 5827 5827 5826 5825 5824 5823 5822 5821 5820 5819 5817 5815 5814 5812 5810 5809 5807
5824 5824 5824 5824 5825 5825 5826 5826 5826 5826 5827 5827 5827 5827 5827 5826 5826 5826 5826 5826 5826 5826 5825 5825 5824 5824 5823 5822 5822 5821 5820 5819 5818 5817 5815 5814 5812 5811 5809 5807 5806 5804 5802
5820 5820 5820 5820 5821 5821 5821 5821 5822 5822 5822 5822 5822 5822 5822 5822 5822 5822 5822 5822 5822 5821 5821 5821 5820 5819 5819 5818 5817 5817 5816 5815 5813 5812 5811 5809 5807 5806 5804 5803 5801 5799 5797
5815 5815 5815 5815 5816 5816 5816 5817 5817 5817 5817 5817 5818 5818 5817 5817 5817 5817 5817 5817 5817 5817 5816 5816 5815 5815 5814 5813 5813 5812 5811 5810 5809 5807 5805 5804 5803 5801 5799 5798 5796 5794 5792
5810 5810 5810 5811 5811 5811 5812 5812 5812 5812 5812 5812 5812 5812 5812 5812 5812 5812 5812 5812 5812 5811 5811 5811 5811 5810 5809 5808 5808 5807 5806 5804 5803 5802 5800 5799 5798 5796 5794 5792 5790 5788 5786
5804 5804 5805 5805 5805 5806 5806 5806 5806 5806 5806 5806 5806 5806 5806 5806 5806 5806 5806 5806 5806 5806 5806 5806 5805 5805 5804 5803 5803 5802 5801 5799 5798 5797 5795 5794 5792 5790 5788 5786 5784 5781 5779
5798 5799 5799 5799 5799 5800 5800 5800 5800 5800 5800 5800 5800 5800 5800 5800 5800 5800 5800 5800 5800 5800 5800 5800 5800 5799 5799 5798 5797 5796 5795 5793 5792 5791 5789 5788 5786 5784 5781 5779 5777 5775 5772
5792 5793 5793 5793 5793 5794 5794 5794 5794 5794 5794 5794 5794 5794 5794 5794 5794 5794 5793 5793 5794 5794 5794 5794 5794 5793 5793 5792 5791 5790 5789 5787 5786 5784 5783 5781 5779 5777 5775 5772 5770 5768 5765
5786 5787 5787 5787 5787 5787 5787 5787 5787 5788 5788 5788 5788 5788 5788 5788 5788 5787 5787 5787 5787 5787 5787 5787 5787 5787 5787 5786 5785 5784 5782 5781 5779 5777 5776 5774 5772 5770 5768 5765 5762 5760 5757
5780 5780 5780 5780 5780 5780 5780 5781 5781 5781 5781 5781 5782 5782 5782 5782 5782 5781 5781 5781 5780 5780 5780 5780 5780 5780 5780 5779 5778 5777 5776 5774 5772 5771 5769 5767 5765 5762 5760 5757 5755 5752 5749
5773 5773 5773 5774 5774 5773 5773 5774 5774 5774 5774 5775 5775 5775 5775 5775 5775 5775 5774 5774 5774 5774 5774 5774 5774 5773 5773 5772 5771 5770 5769 5767 5766 5764 5762 5759 5757 5755 5752 5749 5746 5743 5740
5766 5766 5766 5767 5767 5766 5766 5766 5767 5767 5767 5768 5768 5769 5769 5769 5768 5768 5767 5767 5767 5767 5767 5767 5767 5767 5766 5766 5765 5763 5762 5760 5758 5757 5754 5752 5749 5747 5744 5741 5738 5734 5731
5759 5759 5759 5759 5759 5759 5759 5759 5760 5760 5760 5761 5761 5762 5762 5762 5762 5761 5761 5761 5760 5760 5760 5760 5760 5760 5759 5758 5757 5756 5754 5752 5751 5749 5746 5744 5741 5738 5735 5732 5729 5726 5722
5751 5751 5751 5752 5752 5752 5752 5753 5752 5753 5753 5753 5754 5754 5755 5755 5755 5755 5754 5754 5754 5753 5753 5753 5752 5752 5751 5750 5749 5748 5746 5744 5742 5740 5738 5735 5733 5730 5727 5724 5720 5716 5713
5743 5744 5744 5744 5745 5745 5745 5745 5745 5746 5746 5746 5747 5747 5747 5747 5747 5747 5747 5747 5746 5746 5745 5745 5745 5744 5743 5742 5741 5740 5738 5736 5734 5732 5729 5726 5724 5721 5718 5715 5711 5707 5703
5735 5736 5736 5736 5737 5737 5737 5738 5738 5738 5739 5739 5739 5739 5740 5740 5740 5740 5739 5739 5739 5738 5738 5737 5737 5736 5735 5734 5732 5731 5729 5727 5725 5723 5720 5718 5715 5712 5708 5705 5701 5697 5693
5727 5727 5728 5728 5729 5729 5730 5730 5730 5730 5731 5731 5732 5732 5732 5732 5732 5732 5731 5731 5731 5730 5730 5729 5728 5727 5726 5725 5723 5722 5720 5718 5716 5714 5711 5708 5705 5702 5699 5695 5691 5687 5683
5718 5719 5719 5720 5721 5721 5721 5722 5722 5723 5723 5723 5724 5724 5724 5724 5724 5724 5723 5723 5722 5722 5721 5720 5719 5719 5717 5716 5714 5712 5710 5709 5706 5704 5701 5699 5695 5692 5688 5685 5680 5676 5672
5710 5711 5711 5712 5712 5713 5713 5714 5714 5715 5715 5715 5715 5715 5716 5716 5715 5715 5715 5714 5714 5713 5712 5711 5710 5709 5708 5706 5704 5703 5701 5699 5696 5694 5691 5688 5685 5681 5678 5674 5669 5665 5660
5702 5702 5703 5703 5704 5704 5705 5705 5706 5706 5706 5707 5707 5707 5707 5707 5707 5706 5706 5705 5705 5704 5703 5702 5701 5700 5698 5697 5695 5693 5691 5689 5686 5684 5681 5677 5674 5670 5666 5662 5658 5653 5649
5694 5695 5695 5695 5696 5696 5696 5697 5697 5697 5697 5698 5698 5698 5698 5698 5697 5697 5697 5696 5695 5694 5693 5692 5691 5690 5688 5686 5684 5683 5680 5678 5675 5673 5670 5666 5663 5659 5655 5651 5646 5642 5637
5686 5686 5687 5687 5687 5687 5688 5688 5688 5688 5688 5688 5688 5688 5688 5688 5688 5688 5687 5686 5685 5684 5683 5682 5681 5679 5678 5676 5674 5671 5669 5667 5664 5661 5658 5655 5651 5647 5643 5639 5634 5629 5625
5677 5678 5678 5678 5678 5679 5679 5679 5679 5679 5679 5679 5679 5679 5679 5679 5678 5678 5677 5676 5675 5674 5673 5671 5670 5668 5667 5665 5663 5660 5658 5655 5652 5649 5646 5642 5639 5635 5631 5626 5622 5617 5612
5668 5669 5669 5669 5669 5669 5670 5670 5670 5670 5670 5669 5669 5669 5668 5668 5668 5667 5666 5665 5664 5663 5662 5660 5659 5657 5655 5653 5651 5649 5646 5643 5640 5637 5633 5630 5626 5622 5618 5613 5609 5604 5599